Wind_Speed
98 105 107 111 119 111 112 115 113 110 95 83 74 68 61 58 54 49 45 43 44 40 38 37 38 38 38 40 43 47 53 60 64 71 79 83 89 97
92 102 104 101 101 110 115 111 116 100 85 76 70 64 60 54 52 47 41 40 39 35 34 35 34 34 32 34 37 42 47 53 59 65 72 78 82 89
98 107 99 109 106 104 106 109 96 79 74 72 65 62 59 51 48 45 39 38 37 32 31 31 30 29 28 29 33 38 43 49 54 60 65 74 80 83
113 101 107 109 111 100 104 97 83 68 68 66 62 62 56 48 44 43 39 37 36 31 30 29 28 28 27 27 29 33 39 45 51 57 61 66 74 82
111 111 110 113 98 91 92 75 64 61 65 64 60 58 52 47 42 41 41 38 37 33 31 30 29 28 28 28 28 30 35 41 46 53 59 63 68 77
112 114 117 106 96 91 77 66 58 61 62 62 58 56 51 45 43 40 41 42 40 37 34 33 32 31 30 30 30 31 34 38 43 49 55 61 66 70
120 109 105 92 93 102 74 60 57 59 61 59 56 54 50 47 44 43 43 43 43 42 40 38 36 34 33 33 33 33 35 38 43 48 54 59 65 69
108 110 108 107 99 93 68 60 58 60 59 59 53 52 50 47 46 44 44 45 46 45 45 44 41 40 37 37 37 36 38 40 43 47 53 58 63 68
111 105 113 111 103 81 67 58 58 59 61 55 52 51 50 47 47 45 43 45 47 47 47 47 47 45 44 43 41 41 41 43 45 47 52 56 62 67
111 111 114 98 102 70 58 57 57 61 58 52 52 52 48 46 45 44 43 45 47 48 49 49 49 49 49 49 48 47 46 48 49 50 53 56 60 65
117 111 114 119 89 63 55 56 58 61 58 53 52 51 48 45 43 43 42 44 45 48 50 52 52 52 53 54 54 54 54 53 53 54 55 57 60 64
111 106 119 99 69 55 55 57 61 61 57 55 52 50 48 46 44 42 42 43 43 46 49 52 55 58 59 57 56 56 58 59 60 61 61 61 63 65
122 109 87 75 59 56 58 60 60 60 57 55 51 49 48 45 43 41 41 42 46 49 51 54 57 59 60 59 58 60 61 61 62 63 63 65 67 67
93 83 75 60 58 59 59 61 60 59 57 53 51 49 47 45 44 42 41 42 45 48 50 52 54 56 57 57 60 60 61 62 61 62 65 66 67 70
80 70 64 60 58 60 61 63 64 58 55 53 50 49 48 46 46 44 44 44 45 47 49 49 50 52 53 54 55 57 59 59 59 61 63 66 69 72
65 62 64 63 64 64 66 65 63 57 53 51 50 49 48 47 47 47 47 46 47 48 50 50 51 52 53 53 54 55 56 58 60 63 66 69 74 77
63 66 65 66 64 65 62 63 60 56 53 50 50 49 48 48 48 47 48 48 48 49 51 52 53 54 56 56 57 59 61 62 65 67 69 71 74 79
62 66 65 67 68 64 62 61 57 55 51 49 50 50 49 48 47 47 47 47 48 48 49 52 55 58 61 62 63 65 65 65 65 68 71 74 77 79
64 67 69 69 71 67 59 59 58 54 51 51 51 48 47 47 47 46 46 46 46 46 47 49 52 54 56 57 58 62 66 69 72 74 75 74 72 70
65 67 69 72 71 64 60 58 54 52 51 50 50 47 47 46 46 45 44 43 43 44 46 50 53 56 60 63 64 64 66 69 71 72 70 67 66 66
68 69 71 67 64 62 59 55 54 51 49 51 48 46 46 45 43 42 42 43 45 48 51 55 59 62 65 67 67 67 65 64 64 65 66 63 60 59
64 65 65 63 65 62 55 52 51 52 51 51 49 47 46 44 43 43 45 48 51 54 58 61 65 67 68 68 68 65 63 61 59 60 62 61 59 57
63 64 62 63 62 56 52 52 53 52 52 51 51 50 47 46 47 49 52 54 57 60 64 67 69 70 69 66 62 61 60 59 57 54 55 58 58 58
Wind_Direction
288 290 290 290 295 297 302 304 306 309 307 304 302 302 302 300 296 292 287 285 281 280 281 282 278 271 263 254 245 238 233 230 229 228 229 230 227 224
293 291 290 299 300 298 301 305 306 306 302 299 300 302 304 299 295 291 286 283 275 275 279 281 276 269 260 251 243 236 233 231 228 226 226 227 225 224
298 300 293 297 304 306 305 305 305 304 296 297 301 303 303 298 292 289 285 280 270 269 275 276 274 265 256 250 242 235 231 229 228 225 226 225 224 223
299 297 293 298 302 306 307 304 301 297 296 298 302 302 300 296 289 286 282 276 268 265 271 270 269 264 254 248 245 238 233 230 226 224 225 225 224 221
293 292 296 300 309 310 306 299 299 293 296 298 301 302 297 294 287 283 280 275 265 260 263 264 262 259 255 247 243 239 236 232 229 226 225 225 223 222
292 294 297 300 311 314 306 297 292 296 298 298 299 299 295 291 287 280 276 271 267 258 255 258 257 254 250 247 241 236 234 231 229 227 226 226 225 223
290 295 296 305 311 317 302 294 296 298 298 297 299 299 294 290 285 278 273 270 264 260 253 252 253 253 251 246 243 238 235 232 229 228 228 227 226 225
293 298 303 307 308 310 297 298 296 302 301 297 300 299 294 288 284 278 271 266 263 259 254 249 249 250 251 249 246 242 239 235 233 231 229 229 229 229
296 299 303 306 309 302 295 295 299 304 301 300 303 300 294 289 283 280 274 266 260 257 255 251 248 247 248 249 249 246 242 240 238 234 232 232 232 231
296 298 299 303 307 295 292 297 302 303 299 303 303 299 294 291 286 281 274 264 258 255 252 250 250 247 247 247 248 248 246 244 241 240 239 236 233 233
290 294 295 301 298 287 298 301 304 304 302 305 303 300 297 294 288 282 273 267 262 256 254 252 249 249 248 248 248 247 247 246 245 243 240 240 239 238
287 290 293 296 289 294 302 305 306 304 303 303 302 299 298 295 289 281 275 267 261 257 256 255 253 250 248 248 249 250 249 249 246 244 243 241 241 240
285 290 288 288 289 299 301 304 306 303 302 301 300 298 297 293 289 282 276 270 264 259 258 258 256 253 253 252 248 249 249 249 249 249 247 245 243 242
285 287 287 290 294 298 301 304 305 303 300 298 297 296 295 292 289 285 281 275 269 265 263 264 263 260 258 255 253 252 251 253 254 251 250 248 247 245
284 285 288 293 293 297 302 304 302 300 298 296 294 293 294 292 290 285 281 278 275 272 270 266 263 262 261 260 258 258 258 256 254 252 250 250 249 248
279 286 290 290 293 298 301 303 299 299 295 293 291 290 292 290 290 287 282 279 275 273 272 271 269 267 265 265 264 262 261 260 258 257 255 254 255 253
281 284 288 294 296 297 301 301 298 296 293 292 290 290 290 290 289 288 283 278 277 275 273 273 272 270 270 270 269 268 267 265 264 264 262 259 257 256
281 287 287 292 296 298 303 299 298 295 293 292 290 290 291 291 289 288 286 282 278 276 275 272 270 270 271 273 274 274 274 273 271 268 266 263 259 257
280 284 287 293 295 300 300 298 297 294 293 292 291 292 292 288 286 286 284 282 278 276 276 275 275 274 274 274 273 274 276 276 275 272 269 267 265 261
282 285 290 292 295 298 299 295 293 293 294 293 293 293 290 289 287 285 282 280 279 279 279 280 281 282 282 282 282 280 278 278 275 272 270 267 265 263
283 286 287 292 296 296 296 293 292 293 295 296 296 293 291 289 286 283 281 281 282 284 284 285 285 286 287 287 287 286 282 278 276 275 272 268 263 258
282 285 289 294 294 294 295 293 294 294 295 296 295 292 290 286 282 281 282 285 286 287 287 288 289 291 292 291 290 287 283 279 275 273 272 270 266 259
285 287 290 290 292 294 295 298 297 295 295 296 294 292 288 284 282 283 285 287 288 290 291 292 294 294 294 293 290 287 284 281 278 272 269 270 267 264
Height
10421 10415 10406 10397 10388 10377 10366 10355 10342 10329 10316 10305 10295 10289 10283 10276 10270 10268 10263 10260 10256 10252 10250 10250 10249 10247 10247 10248 10251 10256 10264 10273 10283 10293 10306 10319 10336 10353
10404 10395 10386 10376 10367 10356 10345 10334 10319 10308 10297 10288 10281 10274 10268 10262 10256 10254 10251 10249 10246 10243 10241 10240 10240 10238 10238 10239 10241 10245 10251 10259 10268 10278 10289 10302 10317 10333
10381 10375 10366 10359 10348 10335 10324 10312 10300 10290 10280 10272 10266 10258 10254 10249 10244 10242 10240 10238 10236 10234 10233 10233 10232 10231 10230 10231 10233 10236 10241 10246 10254 10263 10274 10285 10299 10314
10363 10356 10348 10341 10331 10318 10306 10291 10283 10274 10265 10259 10251 10245 10241 10237 10232 10230 10229 10228 10226 10225 10224 10225 10224 10224 10223 10223 10225 10229 10232 10237 10243 10251 10260 10272 10282 10296
10344 10336 10328 10322 10312 10298 10284 10275 10267 10259 10252 10245 10238 10233 10228 10224 10221 10219 10217 10216 10216 10215 10215 10216 10216 10217 10217 10217 10218 10221 10224 10228 10233 10240 10247 10256 10266 10280
10323 10318 10309 10300 10292 10280 10267 10260 10252 10244 10237 10230 10224 10219 10216 10212 10209 10206 10206 10205 10205 10204 10204 10206 10206 10207 10209 10210 10211 10213 10216 10219 10224 10229 10236 10243 10252 10262
10305 10297 10285 10279 10269 10262 10253 10246 10238 10229 10222 10216 10210 10205 10202 10198 10196 10194 10193 10193 10193 10193 10193 10194 10196 10197 10199 10201 10203 10205 10207 10210 10214 10219 10224 10230 10238 10247
10281 10274 10268 10262 10254 10248 10240 10231 10223 10214 10207 10200 10195 10190 10187 10183 10181 10180 10179 10179 10179 10181 10181 10182 10184 10186 10188 10190 10192 10195 10198 10200 10204 10209 10213 10218 10224 10231
10261 10253 10249 10243 10240 10232 10224 10215 10208 10199 10193 10186 10180 10176 10172 10168 10165 10164 10164 10165 10164 10165 10168 10169 10171 10173 10176 10178 10180 10183 10186 10189 10192 10196 10200 10206 10210 10216
10245 10236 10233 10228 10229 10219 10209 10201 10193 10186 10180 10173 10167 10162 10159 10155 10151 10150 10149 10149 10150 10150 10153 10156 10158 10160 10162 10164 10166 10170 10173 10176 10179 10182 10186 10190 10195 10200
10228 10221 10216 10215 10215 10205 10194 10185 10178 10171 10165 10159 10153 10149 10145 10142 10138 10136 10136 10135 10136 10137 10138 10140 10144 10146 10147 10149 10151 10154 10157 10161 10164 10167 10171 10174 10178 10184
10212 10203 10205 10201 10196 10186 10177 10171 10164 10156 10151 10145 10140 10136 10132 10128 10125 10124 10122 10122 10123 10123 10124 10125 10127 10130 10131 10135 10136 10138 10140 10142 10145 10149 10153 10156 10160 10165
10195 10193 10191 10185 10178 10170 10163 10157 10150 10144 10138 10132 10127 10123 10119 10115 10113 10110 10110 10109 10109 10109 10109 10109 10109 10111 10113 10116 10120 10121 10122 10125 10127 10129 10133 10137 10141 10145
10180 10176 10173 10167 10161 10154 10148 10142 10136 10131 10124 10119 10115 10111 10107 10103 10100 10097 10096 10096 10095 10095 10095 10095 10095 10096 10097 10099 10101 10103 10106 10106 10109 10112 10113 10116 10119 10122
10162 10160 10157 10150 10144 10138 10134 10128 10121 10116 10110 10105 10101 10098 10095 10091 10088 10085 10083 10082 10081 10080 10079 10079 10079 10079 10080 10082 10084 10086 10086 10088 10088 10091 10094 10095 10097 10100
10148 10145 10140 10134 10129 10125 10120 10113 10106 10101 10095 10091 10088 10086 10082 10079 10076 10072 10070 10068 10067 10065 10064 10064 10064 10064 10064 10065 10066 10066 10067 10067 10068 10070 10072 10074 10073 10074
10132 10128 10123 10118 10113 10110 10105 10098 10092 10086 10081 10077 10074 10072 10069 10065 10062 10059 10056 10054 10053 10051 10050 10048 10048 10048 10047 10047 10047 10046 10046 10046 10046 10045 10045 10047 10048 10045
10116 10113 10106 10103 10098 10093 10089 10082 10077 10072 10067 10063 10061 10059 10055 10051 10048 10044 10041 10039 10037 10036 10035 10035 10034 10032 10030 10028 10026 10023 10022 10021 10020 10019 10017 10015 10015 10016
10101 10096 10092 10089 10083 10078 10073 10068 10062 10058 10054 10050 10048 10045 10041 10036 10033 10029 10026 10023 10021 10019 10018 10015 10013 10012 10010 10009 10010 10006 10000 9996 9991 9988 9985 9983 9984 9986
10085 10081 10077 10073 10068 10063 10058 10053 10048 10043 10040 10037 10034 10030 10026 10022 10018 10015 10012 10009 10007 10005 10002 9998 9995 9992 9988 9985 9981 9982 9979 9971 9964 9957 9956 9957 9957 9958
10070 10067 10062 10058 10052 10047 10043 10038 10033 10028 10024 10021 10018 10015 10011 10007 10003 10000 9998 9995 9993 9990 9986 9982 9977 9973 9968 9962 9956 9950 9947 9943 9938 9932 9929 9929 9931 9934
10054 10050 10046 10041 10036 10033 10028 10022 10017 10013 10009 10006 10003 10000 9996 9993 9989 9986 9983 9979 9976 9972 9967 9962 9956 9951 9945 9938 9931 9924 9919 9916 9914 9910 9904 9903 9904 9907
10038 10034 10030 10025 10021 10017 10012 10006 10002 9998 9994 9991 9987 9984 9981 9978 9975 9971 9966 9962 9958 9953 9947 9940 9934 9927 9920 9913 9907 9900 9894 9891 9888 9888 9886 9880 9880 9881